NOAA 16 DEB, 41539

Orbit data source: Space-Track

NOAA 16 DEB, 41539 is space debris in SSO originally from a launch on Thu, 21 Sep 2000 UTC launched from the Air Force Western Test Range (AFWTR). Debris objects in space refer to the collection of defunct objects orbiting the Earth. Examples of debris include non-operational satellites, rocket bodies, and fragments generated from explosions, collisions, or faulty payload assembly.

Loading next visibility...
Identifier
41539, 2000-055NP
Orbit
SSO
Country
Flag of USUS
Related business
Manufacturer
Unknown
Mission
Spacecraft
Bus & Motor
Unknown
Mass
Unknown
Launch date (UTC)
2000-09-21 (26 years ago)
Launch vehicle
Unknown
Launch site
Air Force Western Test Range (AFWTR)
Object type
Payload
Rocket body
Debris
Shape & HBR
Unknown shape, 0.1 m
Radar Cross Section
Medium (>0.1 m² and <1 m²)

Expand to show TLE details & history
Last TLE update: 20 hours ago

TLE from 20 hours ago
0 NOAA 16 DEB
1 41539U 00055NP  26264.37607553  .00004968  00000-0  12076-2 0  9993
2 41539  98.8282  52.6751 0018768 163.9195 196.2599 14.53202446552533
Epoch: 2026-09-21T09:01Z
TLE epoch observation values (Epoch: 2026-09-21T09:01:32.925Z)
Latitude
-0.00004°
Longitude
-82.96888°
Altitude
730.949 km
Speed
7.483 km/s
True Right ascension
03h 30m 42s
True Declination
0° 00' 00"
Sunlit
Object was in full shadow at epoch
Visualization orbit readout
Latitude
Unknown
Longitude
Unknown
Altitude
Unknown
Speed
Unknown
Apparent Right ascension
Unknown
Apparent Declination
Unknown
Sunlit
N/A
Visualization observer readout
Local Sidereal Time
22:03:34
Azimuth
Unknown
Elevation
Unknown
Doppler factor
Unknown
Orbital elements
Apogee altitude
725.636 km
Perigee altitude
699.021 km
Semi-major axis
7,090.465 km
Eccentricity
0.00188
Inclination
98.8282°
RAAN
52.6751°
Arg. of periapsis
163.9195°
True anomaly
196.19982°
Mean anomaly
196.2599°
Eccentric anomaly
196.22985°
Mean motion
3.63522 °/min
Orbital period
99.03 mins
BSTAR
0.0012076
Loading maneuver chart data...
Computing Atmospheric mass density...

Documentation

Showing up to 5 results
|